Time,TemperatureF,DewpointF,PressureIn,WindDirection,WindDirectionDegrees,WindSpeedMPH,WindSpeedGustMPH,Humidity,HourlyPrecipIn,Conditions,Clouds,dailyrainin,SoftwareType,DateUTC
2013-08-19 00:02:00,79.8,57.8,29.74,SSW,198,0.0,0.0,47,0.00,,CLR,0.00,VWS V14.01,2013-08-19 07:02:00,
2013-08-19 00:07:00,80.7,58.0,29.73,SSW,198,0.0,0.0,46,0.00,,CLR,0.00,VWS V14.01,2013-08-19 07:07:00,
2013-08-19 00:12:00,81.0,59.5,29.74,NE,39,1.0,2.0,48,0.00,,CLR,0.00,VWS V14.01,2013-08-19 07:12:00,
2013-08-19 00:17:00,80.3,58.8,29.74,NE,38,0.0,3.0,48,0.00,,CLR,0.00,VWS V14.01,2013-08-19 07:17:00,
2013-08-19 00:22:00,79.7,58.9,29.74,NE,38,0.0,3.0,49,0.00,,CLR,0.00,VWS V14.01,2013-08-19 07:22:00,
2013-08-19 00:27:00,79.4,59.7,29.74,NE,38,0.0,3.0,51,0.00,,CLR,0.00,VWS V14.01,2013-08-19 07:27:00,
2013-08-19 00:32:00,79.3,59.6,29.75,NE,39,0.0,0.0,51,0.00,,CLR,0.00,VWS V14.01,2013-08-19 07:32:00,
2013-08-19 00:37:00,79.0,59.9,29.75,NE,39,0.0,0.0,52,0.00,,CLR,0.00,VWS V14.01,2013-08-19 07:37:00,
2013-08-19 00:42:00,78.5,59.4,29.75,NE,39,0.0,0.0,52,0.00,,CLR,0.00,VWS V14.01,2013-08-19 07:42:00,
2013-08-19 00:47:00,78.1,59.1,29.75,NE,39,0.0,0.0,52,0.00,,CLR,0.00,VWS V14.01,2013-08-19 07:47:00,
2013-08-19 00:52:00,78.0,59.0,29.75,NE,39,0.0,0.0,52,0.00,,CLR,0.00,VWS V14.01,2013-08-19 07:52:00,
2013-08-19 00:57:00,77.8,59.3,29.75,NE,39,0.0,0.0,53,0.00,,CLR,0.00,VWS V14.01,2013-08-19 07:57:00,
2013-08-19 01:02:00,77.6,59.7,29.75,NE,38,0.0,0.0,54,0.00,,CLR,0.00,VWS V14.01,2013-08-19 08:02:00,
2013-08-19 01:08:00,77.8,59.8,29.75,NE,37,0.0,0.0,54,0.00,,CLR,0.00,VWS V14.01,2013-08-19 08:08:00,
2013-08-19 01:13:00,77.6,59.1,29.74,NW,314,0.0,1.0,53,0.00,,CLR,0.00,VWS V14.01,2013-08-19 08:13:00,
2013-08-19 01:18:00,77.3,58.3,29.75,NW,315,0.0,1.0,52,0.00,,CLR,0.00,VWS V14.01,2013-08-19 08:18:00,
2013-08-19 01:23:00,77.0,58.0,29.75,NW,314,0.0,1.0,52,0.00,,CLR,0.00,VWS V14.01,2013-08-19 08:23:00,
2013-08-19 01:28:00,76.8,58.4,29.75,NW,314,0.0,1.0,53,0.00,,CLR,0.00,VWS V14.01,2013-08-19 08:28:00,
2013-08-19 01:33:00,76.4,58.5,29.75,NW,315,0.0,0.0,54,0.00,,CLR,0.00,VWS V14.01,2013-08-19 08:33:00,
2013-08-19 01:38:00,76.1,58.8,29.75,NW,315,0.0,0.0,55,0.00,,CLR,0.00,VWS V14.01,2013-08-19 08:38:00,
2013-08-19 01:43:00,76.2,58.9,29.75,SSW,212,0.0,1.0,55,0.00,,CLR,0.00,VWS V14.01,2013-08-19 08:43:00,
2013-08-19 01:48:00,76.1,58.8,29.75,SW,214,0.0,1.0,55,0.00,,CLR,0.00,VWS V14.01,2013-08-19 08:48:00,
2013-08-19 01:53:00,75.9,59.1,29.75,SW,214,0.0,1.0,56,0.00,,CLR,0.00,VWS V14.01,2013-08-19 08:53:00,
2013-08-19 01:58:00,75.7,58.4,29.74,SW,214,0.0,1.0,55,0.00,,CLR,0.00,VWS V14.01,2013-08-19 08:58:00,
2013-08-19 02:03:00,75.7,58.9,29.75,SW,214,0.0,0.0,56,0.00,,CLR,0.00,VWS V14.01,2013-08-19 09:03:00,
2013-08-19 02:08:00,75.8,59.0,29.74,SW,214,0.0,0.0,56,0.00,,CLR,0.00,VWS V14.01,2013-08-19 09:08:00,
2013-08-19 02:13:00,75.9,58.6,29.75,SW,214,0.0,0.0,55,0.00,,CLR,0.00,VWS V14.01,2013-08-19 09:13:00,
2013-08-19 02:18:00,75.7,58.9,29.75,SW,214,0.0,1.0,56,0.00,,CLR,0.00,VWS V14.01,2013-08-19 09:18:00,
2013-08-19 02:23:00,75.3,59.0,29.75,SW,214,0.0,1.0,57,0.00,,CLR,0.00,VWS V14.01,2013-08-19 09:23:00,
2013-08-19 02:28:00,75.0,58.3,29.75,SW,214,0.0,1.0,56,0.00,,CLR,0.00,VWS V14.01,2013-08-19 09:28:00,
2013-08-19 02:33:00,74.8,58.1,29.76,SW,214,0.0,1.0,56,0.00,,CLR,0.00,VWS V14.01,2013-08-19 09:33:00,
2013-08-19 02:38:00,74.6,57.9,29.75,West,275,0.0,1.0,56,0.00,,CLR,0.00,VWS V14.01,2013-08-19 09:38:00,
2013-08-19 02:43:00,74.8,57.6,29.75,WNW,297,0.0,1.0,55,0.00,,CLR,0.00,VWS V14.01,2013-08-19 09:43:00,
2013-08-19 02:48:00,75.1,57.3,29.75,WNW,296,0.0,1.0,54,0.00,,CLR,0.00,VWS V14.01,2013-08-19 09:48:00,
2013-08-19 02:53:00,75.1,57.8,29.75,WNW,297,0.0,1.0,55,0.00,,CLR,0.00,VWS V14.01,2013-08-19 09:53:00,
2013-08-19 02:58:00,75.0,57.8,29.75,WNW,298,0.0,1.0,55,0.00,,CLR,0.00,VWS V14.01,2013-08-19 09:58:00,
2013-08-19 03:03:00,74.6,57.4,29.76,North,359,0.0,1.0,55,0.00,,CLR,0.00,VWS V14.01,2013-08-19 10:03:00,
2013-08-19 03:09:00,74.3,57.6,29.75,North,358,0.0,1.0,56,0.00,,CLR,0.00,VWS V14.01,2013-08-19 10:09:00,
2013-08-19 03:14:00,74.4,57.7,29.75,North,351,0.0,1.0,56,0.00,,CLR,0.00,VWS V14.01,2013-08-19 10:14:00,
2013-08-19 03:19:00,74.4,57.7,29.76,North,351,0.0,1.0,56,0.00,,CLR,0.00,VWS V14.01,2013-08-19 10:19:00,
2013-08-19 03:24:00,74.2,58.0,29.75,North,352,0.0,1.0,57,0.00,,CLR,0.00,VWS V14.01,2013-08-19 10:24:00,
2013-08-19 03:29:00,74.2,57.5,29.75,WNW,284,0.0,1.0,56,0.00,,CLR,0.00,VWS V14.01,2013-08-19 10:29:00,
2013-08-19 03:34:00,74.2,58.0,29.75,West,273,0.0,1.0,57,0.00,,CLR,0.00,VWS V14.01,2013-08-19 10:34:00,
2013-08-19 03:39:00,74.4,58.2,29.75,WSW,256,0.0,1.0,57,0.00,,CLR,0.00,VWS V14.01,2013-08-19 10:39:00,
2013-08-19 03:44:00,74.4,58.7,29.74,WSW,255,0.0,1.0,58,0.00,,CLR,0.00,VWS V14.01,2013-08-19 10:44:00,
2013-08-19 03:49:00,74.4,58.7,29.75,West,263,0.0,1.0,58,0.00,,CLR,0.00,VWS V14.01,2013-08-19 10:49:00,
2013-08-19 03:54:00,74.3,58.6,29.75,West,263,0.0,1.0,58,0.00,,CLR,0.00,VWS V14.01,2013-08-19 10:54:00,
2013-08-19 03:59:00,74.0,58.3,29.75,NNE,24,1.0,1.0,58,0.00,,CLR,0.00,VWS V14.01,2013-08-19 10:59:00,
2013-08-19 04:04:00,73.7,57.5,29.75,NNW,328,0.0,2.0,57,0.00,,CLR,0.00,VWS V14.01,2013-08-19 11:04:00,
2013-08-19 04:09:00,73.7,57.5,29.75,NNW,327,0.0,2.0,57,0.00,,CLR,0.00,VWS V14.01,2013-08-19 11:09:00,
2013-08-19 04:14:00,73.5,56.9,29.75,NNW,328,0.0,2.0,56,0.00,,CLR,0.00,VWS V14.01,2013-08-19 11:14:00,
2013-08-19 04:19:00,73.2,57.1,29.75,NNW,328,0.0,2.0,57,0.00,,CLR,0.00,VWS V14.01,2013-08-19 11:19:00,
2013-08-19 04:24:00,72.9,58.2,29.75,NNW,329,0.0,2.0,60,0.00,,CLR,0.00,VWS V14.01,2013-08-19 11:24:00,
2013-08-19 04:29:00,72.8,58.1,29.75,NNW,328,0.0,2.0,60,0.00,,CLR,0.00,VWS V14.01,2013-08-19 11:29:00,
2013-08-19 04:34:00,72.7,58.5,29.75,NNW,328,0.0,0.0,61,0.00,,CLR,0.00,VWS V14.01,2013-08-19 11:34:00,
2013-08-19 04:39:00,72.7,58.5,29.74,NNW,328,0.0,0.0,61,0.00,,CLR,0.00,VWS V14.01,2013-08-19 11:39:00,
2013-08-19 04:44:00,72.8,58.6,29.75,SSE,150,1.0,2.0,61,0.00,,CLR,0.00,VWS V14.01,2013-08-19 11:44:00,
2013-08-19 04:49:00,73.1,58.9,29.75,SE,131,0.0,2.0,61,0.00,,CLR,0.00,VWS V14.01,2013-08-19 11:49:00,
2013-08-19 04:54:00,73.1,57.9,29.76,ESE,118,0.0,2.0,59,0.00,,CLR,0.00,VWS V14.01,2013-08-19 11:54:00,
2013-08-19 04:59:00,73.1,58.4,29.76,NE,41,0.0,2.0,60,0.00,,CLR,0.00,VWS V14.01,2013-08-19 11:59:00,
2013-08-19 05:04:00,73.0,58.3,29.76,NE,41,0.0,1.0,60,0.00,,CLR,0.00,VWS V14.01,2013-08-19 12:04:00,
2013-08-19 05:09:00,73.0,57.8,29.77,NE,40,1.0,4.0,59,0.00,,CLR,0.00,VWS V14.01,2013-08-19 12:09:00,
2013-08-19 05:14:00,72.9,57.3,29.76,NE,42,0.0,4.0,58,0.00,,CLR,0.00,VWS V14.01,2013-08-19 12:14:00,
2013-08-19 05:19:00,72.8,58.1,29.76,NE,40,0.0,4.0,60,0.00,,CLR,0.00,VWS V14.01,2013-08-19 12:19:00,
2013-08-19 05:24:00,72.7,58.5,29.76,SW,236,0.0,4.0,61,0.00,,CLR,0.00,VWS V14.01,2013-08-19 12:24:00,
2013-08-19 05:29:00,72.6,58.4,29.76,SW,215,0.0,4.0,61,0.00,,CLR,0.00,VWS V14.01,2013-08-19 12:29:00,
2013-08-19 05:35:00,72.3,58.1,29.77,SW,215,0.0,0.0,61,0.00,,CLR,0.00,VWS V14.01,2013-08-19 12:35:00,
2013-08-19 05:40:00,72.2,58.5,29.77,SW,215,0.0,0.0,62,0.00,,CLR,0.00,VWS V14.01,2013-08-19 12:40:00,
2013-08-19 05:45:00,72.1,58.4,29.77,South,169,0.0,0.0,62,0.00,,CLR,0.00,VWS V14.01,2013-08-19 12:45:00,
2013-08-19 05:50:00,72.1,58.8,29.77,SSE,156,0.0,1.0,63,0.00,,CLR,0.00,VWS V14.01,2013-08-19 12:50:00,
2013-08-19 05:55:00,72.0,58.7,29.77,SSE,150,0.0,1.0,63,0.00,,CLR,0.00,VWS V14.01,2013-08-19 12:55:00,
2013-08-19 06:00:00,71.8,59.0,29.78,SSE,150,0.0,1.0,64,0.00,,CLR,0.00,VWS V14.01,2013-08-19 13:00:00,
2013-08-19 06:05:00,71.7,58.5,29.78,SSW,205,0.0,0.0,63,0.00,,CLR,0.00,VWS V14.01,2013-08-19 13:05:00,
2013-08-19 06:10:00,71.8,59.0,29.78,SSW,205,0.0,0.0,64,0.00,,CLR,0.00,VWS V14.01,2013-08-19 13:10:00,
2013-08-19 06:15:00,71.9,59.1,29.78,SSW,205,0.0,0.0,64,0.00,,CLR,0.00,VWS V14.01,2013-08-19 13:15:00,
2013-08-19 06:20:00,71.9,59.1,29.79,SSW,205,0.0,0.0,64,0.00,,CLR,0.00,VWS V14.01,2013-08-19 13:20:00,
2013-08-19 06:25:00,71.8,59.0,29.79,SSW,205,0.0,0.0,64,0.00,,CLR,0.00,VWS V14.01,2013-08-19 13:25:00,
2013-08-19 06:30:00,71.8,59.8,29.79,SSW,205,0.0,0.0,66,0.00,,CLR,0.00,VWS V14.01,2013-08-19 13:30:00,
2013-08-19 06:35:00,72.0,59.6,29.79,SSW,205,0.0,0.0,65,0.00,,CLR,0.00,VWS V14.01,2013-08-19 13:35:00,
2013-08-19 06:40:00,72.4,59.5,29.79,SSW,205,0.0,0.0,64,0.00,,CLR,0.00,VWS V14.01,2013-08-19 13:40:00,
2013-08-19 06:45:00,72.6,59.7,29.80,SSW,205,0.0,0.0,64,0.00,,CLR,0.00,VWS V14.01,2013-08-19 13:45:00,
2013-08-19 06:50:00,72.7,59.4,29.80,SSW,200,0.0,0.0,63,0.00,,CLR,0.00,VWS V14.01,2013-08-19 13:50:00,
2013-08-19 06:55:00,72.8,59.5,29.80,SSE,168,0.0,1.0,63,0.00,,CLR,0.00,VWS V14.01,2013-08-19 13:55:00,
2013-08-19 07:00:00,72.9,59.6,29.80,SSE,150,0.0,2.0,63,0.00,,CLR,0.00,VWS V14.01,2013-08-19 14:00:00,
2013-08-19 07:05:00,72.9,59.1,29.80,ESE,120,0.0,2.0,62,0.00,,CLR,0.00,VWS V14.01,2013-08-19 14:05:00,
2013-08-19 07:10:00,72.8,59.5,29.81,South,190,1.0,2.0,63,0.00,,CLR,0.00,VWS V14.01,2013-08-19 14:10:00,
2013-08-19 07:15:00,72.8,59.5,29.81,SSE,152,0.0,2.0,63,0.00,,CLR,0.00,VWS V14.01,2013-08-19 14:15:00,
2013-08-19 07:20:00,72.9,60.0,29.81,SSE,153,0.0,2.0,64,0.00,,CLR,0.00,VWS V14.01,2013-08-19 14:20:00,
2013-08-19 07:25:00,73.0,60.1,29.82,SSE,155,0.0,2.0,64,0.00,,CLR,0.00,VWS V14.01,2013-08-19 14:25:00,
2013-08-19 07:30:00,73.3,60.4,29.82,SSE,167,0.0,2.0,64,0.00,,CLR,0.00,VWS V14.01,2013-08-19 14:30:00,
2013-08-19 07:35:00,73.6,60.2,29.82,SSE,167,0.0,0.0,63,0.00,,CLR,0.00,VWS V14.01,2013-08-19 14:35:00,
2013-08-19 07:41:00,74.0,60.6,29.82,SSE,167,0.0,0.0,63,0.00,,CLR,0.00,VWS V14.01,2013-08-19 14:41:00,
2013-08-19 07:46:00,74.3,60.5,29.82,SSE,166,0.0,0.0,62,0.00,,CLR,0.00,VWS V14.01,2013-08-19 14:46:00,
2013-08-19 07:50:00,74.6,60.3,29.82,SSE,167,0.0,0.0,61,0.00,,CLR,0.00,VWS V14.01,2013-08-19 14:50:00,
2013-08-19 07:55:00,74.9,60.6,29.83,SSE,166,0.0,0.0,61,0.00,,CLR,0.00,VWS V14.01,2013-08-19 14:55:00,
2013-08-19 08:01:00,75.3,60.9,29.82,SSE,166,0.0,0.0,61,0.00,,CLR,0.00,VWS V14.01,2013-08-19 15:01:00,
2013-08-19 08:06:00,75.8,61.4,29.82,SSE,166,0.0,0.0,61,0.00,,CLR,0.00,VWS V14.01,2013-08-19 15:06:00,
2013-08-19 08:11:00,76.1,61.2,29.82,South,169,0.0,0.0,60,0.00,,CLR,0.00,VWS V14.01,2013-08-19 15:11:00,
2013-08-19 08:16:00,76.5,62.1,29.82,South,169,0.0,0.0,61,0.00,,CLR,0.00,VWS V14.01,2013-08-19 15:16:00,
2013-08-19 08:21:00,76.8,61.9,29.82,South,169,0.0,0.0,60,0.00,,CLR,0.00,VWS V14.01,2013-08-19 15:21:00,
2013-08-19 08:26:00,77.2,62.2,29.82,South,169,0.0,0.0,60,0.00,,CLR,0.00,VWS V14.01,2013-08-19 15:26:00,
2013-08-19 08:31:00,77.6,62.2,29.82,SSE,167,0.0,0.0,59,0.00,,CLR,0.00,VWS V14.01,2013-08-19 15:31:00,
2013-08-19 08:36:00,78.0,62.0,29.82,SSE,167,0.0,0.0,58,0.00,,CLR,0.00,VWS V14.01,2013-08-19 15:36:00,
2013-08-19 08:41:00,78.5,62.0,29.82,SSE,167,0.0,0.0,57,0.00,,CLR,0.00,VWS V14.01,2013-08-19 15:41:00,
2013-08-19 08:46:00,79.0,63.0,29.82,South,169,0.0,0.0,58,0.00,,CLR,0.00,VWS V14.01,2013-08-19 15:46:00,
2013-08-19 08:51:00,79.4,62.9,29.82,South,169,0.0,0.0,57,0.00,,CLR,0.00,VWS V14.01,2013-08-19 15:51:00,
2013-08-19 08:56:00,79.8,62.7,29.82,SSE,167,0.0,0.0,56,0.00,,CLR,0.00,VWS V14.01,2013-08-19 15:56:00,
2013-08-19 09:01:00,80.3,62.7,29.82,SSE,152,0.0,0.0,55,0.00,,CLR,0.00,VWS V14.01,2013-08-19 16:01:00,
2013-08-19 09:06:00,80.8,63.1,29.82,SSE,152,0.0,0.0,55,0.00,,CLR,0.00,VWS V14.01,2013-08-19 16:06:00,
2013-08-19 09:11:00,81.3,62.0,29.82,SSE,153,0.0,0.0,52,0.00,,CLR,0.00,VWS V14.01,2013-08-19 16:11:00,
2013-08-19 09:16:00,81.7,62.4,29.82,SSE,152,0.0,0.0,52,0.00,,CLR,0.00,VWS V14.01,2013-08-19 16:16:00,
2013-08-19 09:21:00,82.1,62.2,29.82,SSE,150,0.0,0.0,51,0.00,,CLR,0.00,VWS V14.01,2013-08-19 16:21:00,
2013-08-19 09:26:00,82.8,61.7,29.82,SSE,150,0.0,0.0,49,0.00,,CLR,0.00,VWS V14.01,2013-08-19 16:26:00,
2013-08-19 09:31:00,83.7,62.0,29.82,SSE,167,0.0,0.0,48,0.00,,CLR,0.00,VWS V14.01,2013-08-19 16:31:00,
2013-08-19 09:36:00,84.7,62.3,29.82,South,174,0.0,1.0,47,0.00,,CLR,0.00,VWS V14.01,2013-08-19 16:36:00,
2013-08-19 09:41:00,85.6,61.8,29.82,South,174,0.0,1.0,45,0.00,,CLR,0.00,VWS V14.01,2013-08-19 16:41:00,
2013-08-19 09:46:00,86.7,61.5,29.83,South,172,0.0,1.0,43,0.00,,CLR,0.00,VWS V14.01,2013-08-19 16:46:00,
2013-08-19 09:51:00,86.9,61.1,29.83,SSE,160,1.0,3.0,42,0.00,,CLR,0.00,VWS V14.01,2013-08-19 16:51:00,
2013-08-19 09:56:00,87.1,61.2,29.83,SSE,162,0.0,3.0,42,0.00,,CLR,0.00,VWS V14.01,2013-08-19 16:56:00,
2013-08-19 10:01:00,87.3,61.4,29.83,ESE,118,1.0,2.0,42,0.00,,CLR,0.00,VWS V14.01,2013-08-19 17:01:00,
2013-08-19 10:06:00,86.7,61.5,29.83,SSE,157,2.0,3.0,43,0.00,,CLR,0.00,VWS V14.01,2013-08-19 17:06:00,
2013-08-19 10:11:00,86.2,61.8,29.84,ESE,107,1.0,3.0,44,0.00,,CLR,0.00,VWS V14.01,2013-08-19 17:11:00,
2013-08-19 10:16:00,85.6,61.8,29.84,South,188,1.0,3.0,45,0.00,,CLR,0.00,VWS V14.01,2013-08-19 17:16:00,
2013-08-19 10:21:00,85.3,61.6,29.84,SSE,148,2.0,3.0,45,0.00,,CLR,0.00,VWS V14.01,2013-08-19 17:21:00,
2013-08-19 10:26:00,85.2,61.5,29.84,South,181,1.0,3.0,45,0.00,,CLR,0.00,VWS V14.01,2013-08-19 17:26:00,
2013-08-19 10:32:00,85.1,62.0,29.84,SE,146,0.0,0.0,46,0.00,,CLR,0.00,VWS V14.01,2013-08-19 17:32:00,
2013-08-19 10:37:00,85.1,62.0,29.84,ESE,122,0.0,2.0,46,0.00,,CLR,0.00,VWS V14.01,2013-08-19 17:37:00,
2013-08-19 10:42:00,85.1,62.6,29.84,ESE,105,1.0,2.0,47,0.00,,CLR,0.00,VWS V14.01,2013-08-19 17:42:00,
2013-08-19 10:47:00,85.2,62.1,29.84,ESE,105,0.0,2.0,46,0.00,,CLR,0.00,VWS V14.01,2013-08-19 17:47:00,
2013-08-19 10:52:00,85.5,62.4,29.84,ESE,104,0.0,2.0,46,0.00,,CLR,0.00,VWS V14.01,2013-08-19 17:52:00,
2013-08-19 10:57:00,85.9,62.1,29.84,ESE,105,0.0,2.0,45,0.00,,CLR,0.00,VWS V14.01,2013-08-19 17:57:00,
2013-08-19 11:02:00,86.4,61.3,29.84,ESE,104,0.0,0.0,43,0.00,,CLR,0.00,VWS V14.01,2013-08-19 18:02:00,
2013-08-19 11:07:00,86.6,62.1,29.84,ESE,103,0.0,0.0,44,0.00,,CLR,0.00,VWS V14.01,2013-08-19 18:07:00,
2013-08-19 11:12:00,86.7,61.5,29.84,ESE,104,0.0,0.0,43,0.00,,CLR,0.00,VWS V14.01,2013-08-19 18:12:00,
2013-08-19 11:17:00,87.0,63.7,29.84,ESE,104,0.0,0.0,46,0.00,,CLR,0.00,VWS V14.01,2013-08-19 18:17:00,
2013-08-19 11:22:00,87.0,62.5,29.84,East,98,0.0,1.0,44,0.00,,CLR,0.00,VWS V14.01,2013-08-19 18:22:00,
2013-08-19 11:27:00,87.1,62.6,29.84,NNE,24,0.0,2.0,44,0.00,,CLR,0.00,VWS V14.01,2013-08-19 18:27:00,
2013-08-19 11:32:00,87.2,62.7,29.83,NNE,29,1.0,1.0,44,0.00,,CLR,0.00,VWS V14.01,2013-08-19 18:32:00,
2013-08-19 11:37:00,87.5,63.6,29.83,NNE,28,0.0,1.0,45,0.00,,CLR,0.00,VWS V14.01,2013-08-19 18:37:00,
2013-08-19 11:42:00,89.1,63.0,29.83,ESE,110,1.0,1.0,42,0.00,,CLR,0.00,VWS V14.01,2013-08-19 18:42:00,
2013-08-19 11:47:00,89.8,63.0,29.83,SSW,203,0.0,1.0,41,0.00,,CLR,0.00,VWS V14.01,2013-08-19 18:47:00,
2013-08-19 11:52:00,90.3,63.4,29.83,ESE,115,0.0,2.0,41,0.00,,CLR,0.00,VWS V14.01,2013-08-19 18:52:00,
2013-08-19 11:57:00,90.8,63.2,29.83,South,188,1.0,2.0,40,0.00,,CLR,0.00,VWS V14.01,2013-08-19 18:57:00,
2013-08-19 12:02:00,91.0,64.1,29.83,SE,146,0.0,1.0,41,0.00,,CLR,0.00,VWS V14.01,2013-08-19 19:02:00,
2013-08-19 12:07:00,91.8,64.1,29.83,NE,36,1.0,2.0,40,0.00,,CLR,0.00,VWS V14.01,2013-08-19 19:07:00,
2013-08-19 12:12:00,92.3,63.8,29.83,ESE,113,1.0,3.0,39,0.00,,CLR,0.00,VWS V14.01,2013-08-19 19:12:00,
2013-08-19 12:17:00,92.9,63.6,29.83,East,97,1.0,3.0,38,0.00,,CLR,0.00,VWS V14.01,2013-08-19 19:17:00,
2013-08-19 12:22:00,93.0,62.9,29.82,NNE,22,0.0,3.0,37,0.00,,CLR,0.00,VWS V14.01,2013-08-19 19:22:00,
2013-08-19 12:27:00,93.1,63.0,29.82,SE,135,0.0,3.0,37,0.00,,CLR,0.00,VWS V14.01,2013-08-19 19:27:00,
2013-08-19 12:32:00,93.6,63.4,29.82,SW,236,0.0,0.0,37,0.00,,CLR,0.00,VWS V14.01,2013-08-19 19:32:00,
2013-08-19 12:37:00,94.9,63.8,29.82,ESE,109,0.0,3.0,36,0.00,,CLR,0.00,VWS V14.01,2013-08-19 19:37:00,
2013-08-19 12:42:00,95.7,62.9,29.82,ENE,74,2.0,6.0,34,0.00,,CLR,0.00,VWS V14.01,2013-08-19 19:42:00,
2013-08-19 12:47:00,96.2,62.5,29.81,West,277,0.0,6.0,33,0.00,,CLR,0.00,VWS V14.01,2013-08-19 19:47:00,
2013-08-19 12:52:00,96.8,62.1,29.81,SSW,211,0.0,6.0,32,0.00,,CLR,0.00,VWS V14.01,2013-08-19 19:52:00,
2013-08-19 12:57:00,96.8,62.1,29.81,NE,34,0.0,6.0,32,0.00,,CLR,0.00,VWS V14.01,2013-08-19 19:57:00,
2013-08-19 13:02:00,97.3,63.4,29.80,North,3,2.0,3.0,33,0.00,,CLR,0.00,VWS V14.01,2013-08-19 20:02:00,
2013-08-19 13:07:00,97.6,62.8,29.80,SE,135,0.0,3.0,32,0.00,,CLR,0.00,VWS V14.01,2013-08-19 20:07:00,
2013-08-19 13:12:00,98.4,63.5,29.80,North,354,2.0,4.0,32,0.00,,CLR,0.00,VWS V14.01,2013-08-19 20:12:00,
2013-08-19 13:17:00,98.4,63.5,29.80,SSW,205,0.0,4.0,32,0.00,,CLR,0.00,VWS V14.01,2013-08-19 20:17:00,
2013-08-19 13:22:00,99.4,62.5,29.80,SE,130,1.0,4.0,30,0.00,,CLR,0.00,VWS V14.01,2013-08-19 20:22:00,
2013-08-19 13:27:00,100.4,61.4,29.80,East,98,3.0,5.0,28,0.00,,CLR,0.00,VWS V14.01,2013-08-19 20:27:00,
2013-08-19 13:32:00,99.9,62.9,29.80,ESE,113,3.0,5.0,30,0.00,,CLR,0.00,VWS V14.01,2013-08-19 20:32:00,
2013-08-19 13:37:00,100.1,64.1,29.80,ESE,107,3.0,5.0,31,0.00,,CLR,0.00,VWS V14.01,2013-08-19 20:37:00,
2013-08-19 13:42:00,100.4,64.3,29.80,SE,130,2.0,5.0,31,0.00,,CLR,0.00,VWS V14.01,2013-08-19 20:42:00,
2013-08-19 13:47:00,100.2,62.2,29.80,East,98,2.0,5.0,29,0.00,,CLR,0.00,VWS V14.01,2013-08-19 20:47:00,
2013-08-19 13:52:00,100.5,63.5,29.80,SE,124,2.0,5.0,30,0.00,,CLR,0.00,VWS V14.01,2013-08-19 20:52:00,
2013-08-19 13:57:00,100.8,62.8,29.80,ESE,114,4.0,5.0,29,0.00,,CLR,0.00,VWS V14.01,2013-08-19 20:57:00,
2013-08-19 14:02:00,100.8,62.8,29.80,ESE,118,3.0,3.0,29,0.00,,CLR,0.00,VWS V14.01,2013-08-19 21:02:00,
2013-08-19 14:07:00,100.8,60.7,29.79,East,98,3.0,6.0,27,0.00,,CLR,0.00,VWS V14.01,2013-08-19 21:07:00,
2013-08-19 14:12:00,100.8,60.7,29.79,SSW,203,1.0,6.0,27,0.00,,CLR,0.00,VWS V14.01,2013-08-19 21:12:00,
2013-08-19 14:17:00,100.6,59.5,29.79,ESE,103,2.0,6.0,26,0.00,,CLR,0.00,VWS V14.01,2013-08-19 21:17:00,
2013-08-19 14:22:00,100.5,60.5,29.79,SE,128,2.0,6.0,27,0.00,,CLR,0.00,VWS V14.01,2013-08-19 21:22:00,
2013-08-19 14:27:00,100.8,60.7,29.79,South,174,1.0,6.0,27,0.00,,CLR,0.00,VWS V14.01,2013-08-19 21:27:00,
2013-08-19 14:32:00,101.0,59.8,29.78,NE,54,3.0,6.0,26,0.00,,CLR,0.00,VWS V14.01,2013-08-19 21:32:00,
2013-08-19 14:37:00,101.4,60.2,29.78,SE,139,1.0,6.0,26,0.00,,CLR,0.00,VWS V14.01,2013-08-19 21:37:00,
2013-08-19 14:42:00,102.2,62.9,29.78,NNE,32,2.0,6.0,28,0.00,,CLR,0.00,VWS V14.01,2013-08-19 21:42:00,
2013-08-19 14:47:00,102.3,60.9,29.78,East,84,2.0,6.0,26,0.00,,CLR,0.00,VWS V14.01,2013-08-19 21:47:00,
2013-08-19 14:52:00,102.1,60.8,29.78,ESE,117,0.0,6.0,26,0.00,,CLR,0.00,VWS V14.01,2013-08-19 21:52:00,
2013-08-19 14:57:00,102.6,58.9,29.78,East,100,4.0,7.0,24,0.00,,CLR,0.00,VWS V14.01,2013-08-19 21:57:00,
2013-08-19 15:02:00,102.3,62.0,29.78,South,188,1.0,2.0,27,0.00,,CLR,0.00,VWS V14.01,2013-08-19 22:02:00,
2013-08-19 15:07:00,103.1,59.3,29.78,ENE,67,0.0,2.0,24,0.00,,CLR,0.00,VWS V14.01,2013-08-19 22:07:00,
2013-08-19 15:12:00,103.3,60.7,29.78,ESE,119,0.0,5.0,25,0.00,,CLR,0.00,VWS V14.01,2013-08-19 22:12:00,
2013-08-19 15:17:00,103.6,59.8,29.77,ESE,113,4.0,7.0,24,0.00,,CLR,0.00,VWS V14.01,2013-08-19 22:17:00,
2013-08-19 15:22:00,103.2,59.4,29.77,SE,143,2.0,7.0,24,0.00,,CLR,0.00,VWS V14.01,2013-08-19 22:22:00,
2013-08-19 15:27:00,103.3,60.7,29.77,NNW,342,0.0,7.0,25,0.00,,CLR,0.00,VWS V14.01,2013-08-19 22:27:00,
2013-08-19 15:32:00,103.4,59.6,29.77,SE,130,1.0,3.0,24,0.00,,CLR,0.00,VWS V14.01,2013-08-19 22:32:00,
2013-08-19 15:37:00,103.6,59.8,29.77,SE,124,6.0,6.0,24,0.00,,CLR,0.00,VWS V14.01,2013-08-19 22:37:00,
2013-08-19 15:42:00,103.1,59.3,29.76,North,359,1.0,6.0,24,0.00,,CLR,0.00,VWS V14.01,2013-08-19 22:42:00,
2013-08-19 15:47:00,102.8,59.1,29.76,ESE,108,1.0,6.0,24,0.00,,CLR,0.00,VWS V14.01,2013-08-19 22:47:00,
2013-08-19 15:52:00,103.2,59.4,29.76,ESE,115,1.0,8.0,24,0.00,,CLR,0.00,VWS V14.01,2013-08-19 22:52:00,
2013-08-19 15:57:00,103.1,60.5,29.76,ESE,103,1.0,8.0,25,0.00,,CLR,0.00,VWS V14.01,2013-08-19 22:57:00,
2013-08-19 16:02:00,103.6,58.6,29.75,NE,44,1.0,4.0,23,0.00,,CLR,0.00,VWS V14.01,2013-08-19 23:02:00,
2013-08-19 16:07:00,103.8,59.9,29.75,ESE,123,0.0,7.0,24,0.00,,CLR,0.00,VWS V14.01,2013-08-19 23:07:00,
2013-08-19 16:12:00,103.6,58.6,29.75,SSE,152,1.0,7.0,23,0.00,,CLR,0.00,VWS V14.01,2013-08-19 23:12:00,
2013-08-19 16:17:00,103.7,59.8,29.75,ENE,77,0.0,7.0,24,0.00,,CLR,0.00,VWS V14.01,2013-08-19 23:17:00,
2013-08-19 16:22:00,103.9,61.2,29.74,NE,46,0.0,7.0,25,0.00,,CLR,0.00,VWS V14.01,2013-08-19 23:22:00,
2013-08-19 16:27:00,103.9,60.0,29.74,West,268,1.0,7.0,24,0.00,,CLR,0.00,VWS V14.01,2013-08-19 23:27:00,
2013-08-19 16:32:00,103.5,58.5,29.74,SSW,210,2.0,3.0,23,0.00,,CLR,0.00,VWS V14.01,2013-08-19 23:32:00,
2013-08-19 16:37:00,103.9,60.0,29.74,East,89,2.0,3.0,24,0.00,,CLR,0.00,VWS V14.01,2013-08-19 23:37:00,
2013-08-19 16:43:00,104.0,60.1,29.73,NNE,23,1.0,4.0,24,0.00,,CLR,0.00,VWS V14.01,2013-08-19 23:43:00,
2013-08-19 16:48:00,103.4,60.8,29.73,ENE,58,0.0,6.0,25,0.00,,CLR,0.00,VWS V14.01,2013-08-19 23:48:00,
2013-08-19 16:53:00,103.3,61.8,29.73,NNE,32,0.0,7.0,26,0.00,,CLR,0.00,VWS V14.01,2013-08-19 23:53:00,
2013-08-19 16:58:00,103.9,60.0,29.73,NE,37,0.0,7.0,24,0.00,,CLR,0.00,VWS V14.01,2013-08-19 23:58:00,
2013-08-19 17:03:00,104.2,61.4,29.72,NNE,19,0.0,2.0,25,0.00,,CLR,0.00,VWS V14.01,2013-08-20 00:03:00,
2013-08-19 17:08:00,104.4,60.4,29.72,ESE,120,0.0,2.0,24,0.00,,CLR,0.00,VWS V14.01,2013-08-20 00:08:00,
2013-08-19 17:13:00,104.3,60.3,29.72,SE,124,1.0,3.0,24,0.00,,CLR,0.00,VWS V14.01,2013-08-20 00:13:00,
2013-08-19 17:18:00,103.7,59.8,29.72,NE,46,1.0,4.0,24,0.00,,CLR,0.00,VWS V14.01,2013-08-20 00:18:00,
2013-08-19 17:23:00,103.8,61.1,29.72,NNE,31,0.0,4.0,25,0.00,,CLR,0.00,VWS V14.01,2013-08-20 00:23:00,
2013-08-19 17:28:00,104.0,60.1,29.72,ENE,77,0.0,4.0,24,0.00,,CLR,0.00,VWS V14.01,2013-08-20 00:28:00,
2013-08-19 17:33:00,103.8,58.7,29.72,NNE,18,2.0,5.0,23,0.00,,CLR,0.00,VWS V14.01,2013-08-20 00:33:00,
2013-08-19 17:38:00,103.2,59.4,29.72,NE,37,5.0,5.0,24,0.00,,CLR,0.00,VWS V14.01,2013-08-20 00:38:00,
2013-08-19 17:43:00,102.9,61.4,29.72,NNE,17,2.0,5.0,26,0.00,,CLR,0.00,VWS V14.01,2013-08-20 00:43:00,
2013-08-19 17:48:00,102.8,61.3,29.72,NNW,344,0.0,5.0,26,0.00,,CLR,0.00,VWS V14.01,2013-08-20 00:48:00,
2013-08-19 17:53:00,102.8,60.2,29.72,East,86,0.0,5.0,25,0.00,,CLR,0.00,VWS V14.01,2013-08-20 00:53:00,
2013-08-19 17:58:00,102.9,60.3,29.72,East,90,0.0,5.0,25,0.00,,CLR,0.00,VWS V14.01,2013-08-20 00:58:00,
2013-08-19 18:03:00,102.6,60.1,29.72,NNE,27,2.0,3.0,25,0.00,,CLR,0.00,VWS V14.01,2013-08-20 01:03:00,
2013-08-19 18:08:00,102.0,60.7,29.72,North,3,2.0,5.0,26,0.00,,CLR,0.00,VWS V14.01,2013-08-20 01:08:00,
2013-08-19 18:13:00,101.7,61.5,29.71,SE,136,0.0,5.0,27,0.00,,CLR,0.00,VWS V14.01,2013-08-20 01:13:00,
2013-08-19 18:18:00,102.0,59.6,29.71,ESE,103,0.0,5.0,25,0.00,,CLR,0.00,VWS V14.01,2013-08-20 01:18:00,
2013-08-19 18:23:00,102.1,60.8,29.71,ENE,70,0.0,5.0,26,0.00,,CLR,0.00,VWS V14.01,2013-08-20 01:23:00,
2013-08-19 18:28:00,102.0,60.7,29.71,NNE,23,0.0,5.0,26,0.00,,CLR,0.00,VWS V14.01,2013-08-20 01:28:00,
2013-08-19 18:33:00,101.4,61.2,29.71,SE,128,0.0,1.0,27,0.00,,CLR,0.00,VWS V14.01,2013-08-20 01:33:00,
2013-08-19 18:38:00,101.5,61.3,29.71,NNW,335,1.0,1.0,27,0.00,,CLR,0.00,VWS V14.01,2013-08-20 01:38:00,
2013-08-19 18:43:00,101.5,61.3,29.71,NNE,23,0.0,1.0,27,0.00,,CLR,0.00,VWS V14.01,2013-08-20 01:43:00,
2013-08-19 18:48:00,101.9,60.6,29.71,NNE,23,0.0,1.0,26,0.00,,CLR,0.00,VWS V14.01,2013-08-20 01:48:00,
2013-08-19 18:53:00,101.6,60.3,29.71,North,4,0.0,1.0,26,0.00,,CLR,0.00,VWS V14.01,2013-08-20 01:53:00,
2013-08-19 18:58:00,101.3,60.1,29.71,WNW,300,0.0,1.0,26,0.00,,CLR,0.00,VWS V14.01,2013-08-20 01:58:00,
2013-08-19 19:03:00,100.9,59.8,29.71,WNW,298,2.0,2.0,26,0.00,,CLR,0.00,VWS V14.01,2013-08-20 02:03:00,
2013-08-19 19:09:00,100.5,59.4,29.71,West,280,1.0,3.0,26,0.00,,CLR,0.00,VWS V14.01,2013-08-20 02:09:00,
2013-08-19 19:14:00,99.9,56.7,29.72,NW,307,1.0,4.0,24,0.00,,CLR,0.00,VWS V14.01,2013-08-20 02:14:00,
2013-08-19 19:19:00,99.5,57.5,29.71,NW,309,1.0,4.0,25,0.00,,CLR,0.00,VWS V14.01,2013-08-20 02:19:00,
2013-08-19 19:24:00,99.2,58.3,29.71,WNW,294,0.0,4.0,26,0.00,,CLR,0.00,VWS V14.01,2013-08-20 02:24:00,
2013-08-19 19:29:00,98.5,56.6,29.71,WNW,286,1.0,4.0,25,0.00,,CLR,0.00,VWS V14.01,2013-08-20 02:29:00,
2013-08-19 19:34:00,97.8,56.0,29.71,West,269,0.0,2.0,25,0.00,,CLR,0.00,VWS V14.01,2013-08-20 02:34:00,
2013-08-19 19:39:00,97.2,55.5,29.71,WNW,300,0.0,2.0,25,0.00,,CLR,0.00,VWS V14.01,2013-08-20 02:39:00,
2013-08-19 19:44:00,96.7,57.2,29.71,WNW,301,0.0,2.0,27,0.00,,CLR,0.00,VWS V14.01,2013-08-20 02:44:00,
2013-08-19 19:49:00,95.9,59.5,29.71,WSW,252,0.0,2.0,30,0.00,,CLR,0.00,VWS V14.01,2013-08-20 02:49:00,
2013-08-19 19:54:00,95.0,59.7,29.71,West,266,0.0,2.0,31,0.00,,CLR,0.00,VWS V14.01,2013-08-20 02:54:00,
2013-08-19 19:59:00,94.3,59.9,29.71,WSW,257,0.0,2.0,32,0.00,,CLR,0.00,VWS V14.01,2013-08-20 02:59:00,
2013-08-19 20:04:00,93.5,59.2,29.71,WSW,257,0.0,0.0,32,0.00,,FEW120,0.00,VWS V14.01,2013-08-20 03:04:00,
2013-08-19 20:09:00,92.7,59.4,29.71,ENE,74,0.0,1.0,33,0.00,,FEW120,0.00,VWS V14.01,2013-08-20 03:09:00,
2013-08-19 20:14:00,91.6,59.3,29.71,ENE,73,0.0,1.0,34,0.00,,FEW120,0.00,VWS V14.01,2013-08-20 03:14:00,
2013-08-19 20:19:00,90.5,59.1,29.71,ENE,74,0.0,1.0,35,0.00,,FEW120,0.00,VWS V14.01,2013-08-20 03:19:00,
2013-08-19 20:24:00,89.8,59.3,29.71,ESE,111,0.0,1.0,36,0.00,,FEW120,0.00,VWS V14.01,2013-08-20 03:24:00,
2013-08-19 20:29:00,89.4,59.7,29.71,ESE,111,0.0,1.0,37,0.00,,FEW120,0.00,VWS V14.01,2013-08-20 03:29:00,
2013-08-19 20:34:00,88.9,58.5,29.71,SSE,158,0.0,1.0,36,0.00,,FEW120,0.00,VWS V14.01,2013-08-20 03:34:00,
2013-08-19 20:39:00,88.2,58.7,29.71,SSE,150,0.0,1.0,37,0.00,,FEW120,0.00,VWS V14.01,2013-08-20 03:39:00,
2013-08-19 20:44:00,87.7,58.2,29.71,SE,143,0.0,2.0,37,0.00,,FEW120,0.00,VWS V14.01,2013-08-20 03:44:00,
2013-08-19 20:49:00,87.3,58.6,29.72,SSE,152,0.0,2.0,38,0.00,,FEW120,0.00,VWS V14.01,2013-08-20 03:49:00,
2013-08-19 20:54:00,87.0,58.3,29.72,SSE,150,0.0,2.0,38,0.00,,FEW120,0.00,VWS V14.01,2013-08-20 03:54:00,
2013-08-19 20:59:00,86.6,58.0,29.72,ESE,113,0.0,2.0,38,0.00,,FEW120,0.00,VWS V14.01,2013-08-20 03:59:00,
2013-08-19 21:01:00,86.5,57.9,29.72,ESE,116,0.0,2.0,38,0.00,,CLR,0.00,VWS V14.01,2013-08-20 04:01:00,
2013-08-19 21:06:00,86.1,58.3,29.73,ESE,113,0.0,1.0,39,0.00,,CLR,0.00,VWS V14.01,2013-08-20 04:06:00,
2013-08-19 21:11:00,86.0,58.2,29.73,North,354,0.0,1.0,39,0.00,,CLR,0.00,VWS V14.01,2013-08-20 04:11:00,
2013-08-19 21:16:00,85.9,58.1,29.73,North,354,0.0,1.0,39,0.00,,CLR,0.00,VWS V14.01,2013-08-20 04:16:00,
2013-08-19 21:21:00,86.2,58.4,29.74,North,354,0.0,1.0,39,0.00,,CLR,0.00,VWS V14.01,2013-08-20 04:21:00,
2013-08-19 21:26:00,86.3,59.2,29.74,North,354,0.0,1.0,40,0.00,,CLR,0.00,VWS V14.01,2013-08-20 04:26:00,
2013-08-19 21:31:00,85.9,58.8,29.75,North,354,0.0,0.0,40,0.00,,CLR,0.00,VWS V14.01,2013-08-20 04:31:00,
2013-08-19 21:36:00,85.5,59.1,29.75,North,354,0.0,0.0,41,0.00,,CLR,0.00,VWS V14.01,2013-08-20 04:36:00,
2013-08-19 21:41:00,85.1,60.1,29.75,SE,125,0.0,1.0,43,0.00,,CLR,0.00,VWS V14.01,2013-08-20 04:41:00,
2013-08-19 21:46:00,84.5,58.9,29.75,South,174,0.0,1.0,42,0.00,,CLR,0.00,VWS V14.01,2013-08-20 04:46:00,
2013-08-19 21:51:00,84.1,59.2,29.75,South,184,0.0,1.0,43,0.00,,CLR,0.00,VWS V14.01,2013-08-20 04:51:00,
2013-08-19 21:56:00,84.0,59.1,29.75,South,184,1.0,1.0,43,0.00,,CLR,0.00,VWS V14.01,2013-08-20 04:56:00,
2013-08-19 22:01:00,84.1,59.2,29.75,South,182,0.0,1.0,43,0.00,,CLR,0.00,VWS V14.01,2013-08-20 05:01:00,
2013-08-19 22:06:00,84.0,59.1,29.75,South,176,2.0,2.0,43,0.00,,CLR,0.00,VWS V14.01,2013-08-20 05:06:00,
2013-08-19 22:11:00,83.9,58.4,29.75,SSW,205,2.0,5.0,42,0.00,,CLR,0.00,VWS V14.01,2013-08-20 05:11:00,
2013-08-19 22:16:00,83.5,58.0,29.75,SE,145,1.0,5.0,42,0.00,,CLR,0.00,VWS V14.01,2013-08-20 05:16:00,
2013-08-19 22:21:00,83.2,57.8,29.76,SSW,201,1.0,5.0,42,0.00,,CLR,0.00,VWS V14.01,2013-08-20 05:21:00,
2013-08-19 22:26:00,82.8,57.4,29.75,SE,136,1.0,5.0,42,0.00,,CLR,0.00,VWS V14.01,2013-08-20 05:26:00,
2013-08-19 22:31:00,82.1,57.4,29.75,SSW,211,2.0,5.0,43,0.00,,CLR,0.00,VWS V14.01,2013-08-20 05:31:00,
2013-08-19 22:36:00,81.4,57.4,29.75,SSW,210,1.0,3.0,44,0.00,,CLR,0.00,VWS V14.01,2013-08-20 05:36:00,
2013-08-19 22:41:00,81.0,57.7,29.75,SE,142,0.0,3.0,45,0.00,,CLR,0.00,VWS V14.01,2013-08-20 05:41:00,
2013-08-19 22:46:00,80.8,57.5,29.75,South,172,1.0,3.0,45,0.00,,CLR,0.00,VWS V14.01,2013-08-20 05:46:00,
2013-08-19 22:51:00,80.5,57.8,29.75,SSE,155,0.0,3.0,46,0.00,,CLR,0.00,VWS V14.01,2013-08-20 05:51:00,
2013-08-19 22:56:00,80.3,57.7,29.75,South,172,2.0,3.0,46,0.00,,CLR,0.00,VWS V14.01,2013-08-20 05:56:00,
2013-08-19 23:01:00,80.0,58.0,29.75,SSW,211,3.0,3.0,47,0.00,,CLR,0.00,VWS V14.01,2013-08-20 06:01:00,
2013-08-19 23:06:00,79.7,58.3,29.75,South,184,1.0,4.0,48,0.00,,CLR,0.00,VWS V14.01,2013-08-20 06:06:00,
2013-08-19 23:11:00,79.2,57.8,29.74,SSW,194,2.0,5.0,48,0.00,,CLR,0.00,VWS V14.01,2013-08-20 06:11:00,
2013-08-19 23:16:00,78.3,57.6,29.74,SW,215,3.0,5.0,49,0.00,,CLR,0.00,VWS V14.01,2013-08-20 06:16:00,
2013-08-19 23:21:00,77.3,57.8,29.74,South,174,3.0,7.0,51,0.00,,CLR,0.00,VWS V14.01,2013-08-20 06:21:00,
2013-08-19 23:27:00,76.3,57.4,29.74,South,191,3.0,7.0,52,0.00,,CLR,0.00,VWS V14.01,2013-08-20 06:27:00,
2013-08-19 23:32:00,75.8,57.5,29.75,SSW,210,2.0,4.0,53,0.00,,CLR,0.00,VWS V14.01,2013-08-20 06:32:00,
2013-08-19 23:37:00,75.5,57.2,29.75,South,176,3.0,5.0,53,0.00,,CLR,0.00,VWS V14.01,2013-08-20 06:37:00,
2013-08-19 23:42:00,75.3,57.0,29.74,South,181,3.0,6.0,53,0.00,,CLR,0.00,VWS V14.01,2013-08-20 06:42:00,
2013-08-19 23:47:00,75.2,57.4,29.75,SSW,193,2.0,6.0,54,0.00,,CLR,0.00,VWS V14.01,2013-08-20 06:47:00,
2013-08-19 23:52:00,74.9,57.2,29.75,WSW,257,6.0,9.0,54,0.00,,CLR,0.00,VWS V14.01,2013-08-20 06:52:00,
2013-08-19 23:57:00,73.8,57.1,29.76,SW,215,7.0,10.0,56,0.00,,CLR,0.00,VWS V14.01,2013-08-20 06:57:00,